Tracking 19407 objects as of 14-Dec-2018
HD Live streaming from Space Station
objects crossing your sky now

OBJECT K

Track OBJECT K now!
10-day predictions


NORAD ID: 43189
Int'l Code: 2018-014K
Perigee: 578.1 km
Apogee: 591.3 km
Inclination: 97.7 °
Period: 96.2 minutes
Semi major axis: 6955 km
RCS: Unknown
Launch date: February 1, 2018
Source: (TBD)
Launch site: VOSTOCHNY COSMODROME (VOSTO)
aabbcc
Your satellite tracking list
Your tracking list is empty




NASA's NSSDC Master Catalog

Two Line Element Set (TLE):
1 43189U 18014K   18348.22023688  .00000577  00000-0  55773-4 0  9994
2 43189  97.7170 254.2662 0009534 269.2586  90.7543 14.96548154 45794
Source of the keplerian elements: AMSAT